Погода в Муслюмове

Россия / Челябинская область     55°36′17″N   61°37′31″E
темп.,
°C
ветер,
м/с
пор.,
м/с
влажн.,
%
обл.,
%
осадки,
мм/ч
давл.,
гПа
погр.,
м
22 января, сб
сб2223:00−19ююз32905 0.0 102826
02:00−21ююз22968 0.0 102813
05:00−22ююз22988 0.0 102910
08:00−21ююз22975 0.0 103026
11:00−16ююз238796 0.0 103059
14:00−11ю248351 0.0 1031105
17:00−17ю229243 0.0 103213
20:00−22ююз229558 0.0 103413
23 января, вс
вс2323:00−24ю229474 0.0 103510
02:00−24ююз329434 0.0 103618
05:00−25ююз229644 0.0 103611
08:00−25ю229980 0.0 10379
11:00−19ююз228885 0.0 103845
14:00−13ю238167 0.0 103885
17:00−18ю2292100 0.0 103910
20:00−19ююз2292100 0.0 104025
24 января, пн
пн2423:00−18ююз2486100 0.0 104042
02:00−16ююз3486100 0.0 104056
05:00−15ю3485100 0.0 103960
08:00−13ююз3484100 0.0 103958
11:00−11ююз2484100 0.0 1039100
14:00−8зюз1286100 0.0 103776
17:00−9з2293100 0.0 103810
20:00−6зсз3896100 0.1 1037234
25 января, вт
вт2523:00−9зсз379561 0.5 1036108
02:00−13зсз3896100 0.0 103682
05:00−10зсз41093100 0.0 1035206
08:00−9зсз4992100 0.0 1034244
11:00−10з4109178 0.0 1033255
14:00−6з41087100 0.0 1031446
17:00−7зсз4887100 0.0 1031250
20:00−7зсз41088100 0.0 1030307
26 января, ср
ср2623:00−8зсз4990100 0.0 1030286
02:00−10зсз3794100 0.0 1030129
05:00−15з3496100 0.0 103138
08:00−16з339445 0.0 103136
11:00−13юз23947 0.0 103149
14:00−8ююз128870 0.0 103066
17:00−12ю229579 0.0 103013
20:00−14ююз3596100 0.0 103150